sat.trackr.live / text

‹ back to catalog

STARLINK-35559

NORAD 66095 · 2025-236K

PAYLOAD ACTIVE UNKNOWN

§ Identity

Operator
Country
US
Launch date
2025-10-19
Launch site
AFWTR
Launch vehicle
Mass (kg)
RCS (m²)

Purposes: comms

External: N2YO · Heavens-Above · Gunter

§ Orbital elements

Epoch: 2026-05-25T03:37:04.229760Z

Period
94.11 min
Inclination
53.1603°
Eccentricity
0.0000925
Mean motion
15.30183034 rev/d
Perigee alt
474.6 km
Apogee alt
475.9 km
Semi-major
6,853.4 km
B*
7.6001e-4
RAAN
108.5362°
Arg perigee
111.5541°
Mean anomaly
248.5559°
Rev number
3,465

§ Raw data

STARLINK-355591 66095U 25236K   26145.15074340  .00022206  00000+0  76001-3 0  99942 66095  53.1603 108.5362 0000925 111.5541 248.5559 15.30183034 34659

JSON: /api/v1/satellites/66095 · /tle

For live sub-satellite position, see the globe view (requires WebGL).

§ Visibility from observer

Set your observer location to see the next 7 days of passes ≥ 10°. The values pass through the URL so the page stays shareable.

No JS? Fill the form by hand. The geolocation button needs JavaScript.